Location: St. Louis
(38.6270°N, 90.1994°W)
Time: 07:55:05
(UTC-05:00)

COSMOS 2251 DEB - Pass Details

Date: 10 July 2022
Orbit: 573 x 629 km, 74.1° (Epoch: 16 August)

Event Time Altitude Azimuth Distance (km) Brightness Sun altitude
Rises 04:36:52 0° 166° (SSE) 2,789 ? -11.7°
Reaches altitude 10° 04:39:23 10° 152° (SSE) 1,904 ? -11.3°
Maximum altitude 04:42:45 23° 99° (E) 1,264 ? -10.8°
Drops below altitude 10° 04:46:12 10° 47° (NE) 1,944 ? -10.3°
Sets 04:48:47 0° 33° (NNE) 2,864 ? -9.9°
